Change the Weather History Date:

Saturday, March 9, 2013

  Actual Average (KP67) Record (KP67)
Temperature  
Mean Temperature 29 °F -  
Max Temperature 32 °F 22 °F 35 °F (1997)
Min Temperature 24 °F 5 °F 0 °F (1998)
Degree Days  
Heating Degree Days 36    
Moisture  
Dew Point 29 °F    
Average Humidity 97    
Maximum Humidity 100    
Minimum Humidity 80    
Precipitation  
Precipitation 0.00 in - - ()
Sea Level Pressure  
Sea Level Pressure 29.88 in    
Wind  
Wind Speed 13 mph (North)    
Max Wind Speed 29 mph    
Max Gust Speed 33 mph    
Visibility 4 miles    
Events      
Averages and records for this station are not official NWS values.
T = Trace of Precipitation, MM = Missing Value Source: NWS Daily Summary

Daily Weather History Graph

Daily Weather History Graph

Search for Another Location

Airport or City:

Trip Planner

Search our weather history database for the weather conditions in past years. The results will help you decide how hot, cold, wet, or windy it might be!

Date:

Astronomy

Mar. 09, 2013 Rise Set
Actual Time 6:54 AM CST 6:28 PM CST
Civil Twilight 6:24 AM CST 6:58 PM CST
Nautical Twilight 5:49 AM CST 7:33 PM CST
Astronomical Twilight 5:14 AM CST 8:08 PM CST
Moon 5:24 AM CST (3/9) 4:27 PM CST (3/9)
Length of Visible Light 12h 34m
Length of Day
11h 34m
Waning Crescent, 5% of the Moon is Illuminated
Mar 9
Waning Crescent
Mar 11
New
Mar 19
First Quarter
Mar 27
Full
Apr 2
Last Quarter

Hourly Weather History & Observations

Time (CST) Temp. Windchill Dew Point Humidity Pressure Visibility Wind Dir Wind Speed Gust Speed Precip Events Conditions
12:15 AM 28.4 °F 20.4 °F 28.4 °F 100% 29.98 in 1.5 mi ENE 8.1 mph - 0.00 in   Overcast
12:35 AM 28.4 °F 19.7 °F 28.4 °F 100% 29.97 in 1.5 mi ENE 9.2 mph - 0.00 in   Overcast
12:55 AM 28.4 °F 19.1 °F 28.4 °F 100% 29.96 in 1.2 mi NE 10.4 mph - 0.00 in   Unknown
1:15 AM 28.4 °F 19.7 °F 28.4 °F 100% 29.95 in 1.0 mi NE 9.2 mph - 0.00 in   Overcast
1:35 AM - - - N/A% 29.94 in 1.0 mi NE 9.2 mph - 0.00 in   Overcast
1:55 AM 30.2 °F 21.9 °F 30.2 °F 100% 29.93 in 1.0 mi NE 9.2 mph - 0.00 in   Overcast
2:15 AM 30.2 °F 22.6 °F 30.2 °F 100% 29.92 in 0.8 mi NE 8.1 mph - 0.00 in   Overcast
2:35 AM 30.2 °F 22.6 °F 30.2 °F 100% 29.91 in 0.8 mi NE 8.1 mph - 0.00 in   Overcast
3:15 AM 30.2 °F 21.9 °F 30.2 °F 100% 29.90 in 0.8 mi NE 9.2 mph - 0.00 in   Overcast
3:35 AM 30.2 °F 21.9 °F 30.2 °F 100% 29.89 in 0.8 mi NNE 9.2 mph - 0.00 in   Overcast
3:55 AM 30.2 °F 21.9 °F 30.2 °F 100% 29.88 in 0.8 mi NNE 9.2 mph - 0.00 in   Overcast
4:15 AM 30.2 °F 21.3 °F 30.2 °F 100% 29.88 in 0.8 mi NNE 10.4 mph - 0.00 in   Overcast
4:35 AM 30.2 °F 22.6 °F 30.2 °F 100% 29.87 in 0.8 mi North 8.1 mph - 0.00 in   Overcast
4:55 AM 30.2 °F 20.8 °F 30.2 °F 100% 29.87 in 0.8 mi North 11.5 mph - 0.00 in   Unknown
5:15 AM 30.2 °F 21.3 °F 30.2 °F 100% 29.86 in 0.8 mi NNE 10.4 mph - 0.00 in   Unknown
5:35 AM 30.2 °F 21.3 °F 30.2 °F 100% 29.86 in 1.0 mi NNE 10.4 mph - 0.00 in   Unknown
6:15 AM 30.2 °F 21.3 °F 30.2 °F 100% 29.85 in 0.8 mi NNE 10.4 mph - 0.00 in   Overcast
6:35 AM 28.4 °F 20.4 °F 28.4 °F 100% 29.85 in 0.8 mi NNE 8.1 mph - 0.00 in   Overcast
6:55 AM - - - N/A% 29.87 in 0.8 mi North 8.1 mph - 0.00 in   Overcast
7:15 AM 28.4 °F 19.7 °F 28.4 °F 100% 29.85 in 0.5 mi North 9.2 mph - 0.00 in   Overcast
7:35 AM 28.4 °F 20.4 °F 28.4 °F 100% 29.84 in 0.5 mi North 8.1 mph - 0.00 in   Overcast
7:55 AM 28.4 °F 18.5 °F 28.4 °F 100% 29.83 in 0.2 mi North 11.5 mph - 0.00 in   Overcast
8:15 AM 28.4 °F 18.0 °F 28.4 °F 100% 29.83 in 0.5 mi North 12.7 mph - 0.00 in   Unknown
8:35 AM 28.4 °F 18.0 °F 28.4 °F 100% 29.83 in 0.5 mi North 12.7 mph - 0.00 in   Unknown
9:15 AM 28.4 °F 19.7 °F 28.4 °F 100% 29.83 in 0.5 mi North 9.2 mph - 0.00 in   Overcast
9:35 AM 28.4 °F 19.1 °F 28.4 °F 100% 29.82 in 0.5 mi North 10.4 mph - 0.00 in   Overcast
9:55 AM 28.4 °F 18.0 °F 28.4 °F 100% 29.81 in 0.8 mi North 12.7 mph - 0.00 in   Overcast
10:15 AM 28.4 °F 18.5 °F 28.4 °F 100% 29.81 in 0.5 mi North 11.5 mph - 0.00 in   Overcast
10:35 AM 28.4 °F 17.0 °F 28.4 °F 100% 29.81 in 0.8 mi North 15.0 mph - 0.00 in   Overcast
10:55 AM 28.4 °F 18.0 °F 28.4 °F 100% 29.80 in 1.0 mi North 12.7 mph - 0.00 in   Overcast
11:15 AM 28.4 °F 17.5 °F 28.4 °F 100% 29.81 in 1.5 mi North 13.8 mph - 0.00 in   Overcast
11:35 AM 28.4 °F 17.5 °F 28.4 °F 100% 29.82 in 2.0 mi NNW 13.8 mph - 0.00 in   Overcast
11:55 AM 28.4 °F 17.5 °F 28.4 °F 100% 29.82 in 3.0 mi NNW 13.8 mph - 0.00 in   Overcast
12:15 PM 28.4 °F 16.6 °F 28.4 °F 100% 29.82 in 3.0 mi North 16.1 mph - 0.00 in   Unknown
12:35 PM 28.4 °F 17.0 °F 28.4 °F 100% 29.82 in 2.5 mi North 15.0 mph - 0.00 in   Unknown
1:15 PM 28.4 °F 16.6 °F 28.4 °F 100% 29.81 in 1.0 mi North 16.1 mph 20.7 mph 0.00 in   Overcast
1:35 PM 30.2 °F 18.9 °F 30.2 °F 100% 29.80 in 1.5 mi North 16.1 mph - 0.00 in   Overcast
1:55 PM 30.2 °F 19.8 °F 30.2 °F 100% 29.79 in 1.2 mi North 13.8 mph - 0.00 in   Overcast
2:15 PM 30.2 °F 18.5 °F 30.2 °F 100% 29.79 in 2.0 mi North 17.3 mph - 0.00 in   Unknown
2:35 PM 30.2 °F 19.3 °F 30.2 °F 100% 29.79 in 1.8 mi North 15.0 mph - 0.00 in   Unknown
2:55 PM - - - N/A% 29.80 in 1.5 mi North 13.8 mph - 0.00 in   Unknown
3:15 PM 30.2 °F 18.5 °F 30.2 °F 100% 29.81 in 0.5 mi North 17.3 mph - 0.00 in   Overcast
3:35 PM 30.2 °F 18.5 °F 30.2 °F 100% 29.82 in 0.8 mi North 17.3 mph - 0.00 in   Overcast
3:55 PM 32.0 °F 20.1 °F 32.0 °F 100% 29.82 in 1.2 mi North 19.6 mph 24.2 mph 0.00 in   Overcast
4:15 PM 32.0 °F 19.8 °F 30.2 °F 93% 29.83 in 2.5 mi North 20.7 mph 26.5 mph 0.00 in   Unknown
4:35 PM 32.0 °F 20.5 °F 30.2 °F 93% 29.83 in 2.5 mi NNW 18.4 mph - 0.00 in   Unknown
4:55 PM 32.0 °F 20.1 °F 30.2 °F 93% 29.83 in 3.0 mi North 19.6 mph - 0.00 in   Unknown
5:15 PM 32.0 °F 20.1 °F 30.2 °F 93% 29.83 in 7.0 mi North 19.6 mph - 0.00 in   Unknown
5:35 PM 32.0 °F 20.8 °F 30.2 °F 93% 29.84 in 10.0 mi North 17.3 mph - 0.00 in   Unknown
5:55 PM 32.0 °F 20.5 °F 28.4 °F 87% 29.85 in 10.0 mi NNW 18.4 mph - 0.00 in   Unknown
6:15 PM 32.0 °F 21.6 °F 28.4 °F 87% 29.86 in 10.0 mi NNW 15.0 mph - 0.00 in   Overcast
6:35 PM 32.0 °F 21.2 °F 28.4 °F 87% 29.86 in 9.0 mi NNW 16.1 mph - 0.00 in   Unknown
6:55 PM 32.0 °F 20.5 °F 28.4 °F 87% 29.88 in 8.0 mi NNW 18.4 mph - 0.00 in   Scattered Clouds
7:15 PM 32.0 °F 19.8 °F 28.4 °F 87% 29.90 in 8.0 mi NNW 20.7 mph 24.2 mph 0.00 in   Overcast
7:35 PM 30.2 °F 16.8 °F 30.2 °F 100% 29.91 in 8.0 mi NNW 23.0 mph 28.8 mph 0.00 in   Overcast
7:55 PM 30.2 °F 16.2 °F 30.2 °F 100% 29.92 in 8.0 mi NNW 25.3 mph - 0.00 in   Unknown
8:15 PM 30.2 °F 18.1 °F 30.2 °F 100% 29.93 in 7.0 mi North 18.4 mph - 0.00 in   Overcast
8:35 PM 30.2 °F 17.8 °F 30.2 °F 100% 29.94 in 7.0 mi North 19.6 mph 25.3 mph 0.00 in   Unknown
8:55 PM 30.2 °F 18.1 °F 28.4 °F 93% 29.95 in 8.0 mi North 18.4 mph - 0.00 in   Unknown
9:15 PM 30.2 °F 17.4 °F 28.4 °F 93% 29.95 in 10.0 mi North 20.7 mph 27.6 mph 0.00 in   Overcast
9:35 PM 30.2 °F 16.5 °F 28.4 °F 93% 29.96 in 9.0 mi North 24.2 mph - 0.00 in   Overcast
9:55 PM 30.2 °F 16.5 °F 28.4 °F 93% 29.96 in 8.0 mi NNW 24.2 mph - 0.00 in   Overcast
10:15 PM 30.2 °F 17.1 °F 28.4 °F 93% 29.97 in 9.0 mi North 21.9 mph 29.9 mph 0.00 in   Overcast
10:35 PM 28.4 °F 13.0 °F 26.6 °F 93% 29.98 in 10.0 mi NNW 28.8 mph 33.4 mph 0.00 in   Unknown
10:55 PM 28.4 °F 14.7 °F 24.8 °F 86% 29.99 in 10.0 mi NNW 21.9 mph 29.9 mph 0.00 in   Unknown
11:15 PM 26.6 °F 11.1 °F 23.0 °F 86% 30.00 in 10.0 mi North 26.5 mph 32.2 mph 0.00 in   Unknown
11:35 PM 26.6 °F 11.1 °F 21.2 °F 80% 30.01 in 10.0 mi NNW 26.5 mph 32.2 mph 0.00 in   Overcast
11:55 PM 24.8 °F 9.6 °F 21.2 °F 86% 30.01 in 10.0 mi NNW 23.0 mph - 0.00 in   Unknown